Location: Marysville Observatory
(48.1092°N, 122.1645°W)
Time: 05:46:14
(UTC-08:00)

ISS - Visible Passes

Search period start: 20 December 2014 00:00
Search period end: 30 December 2014 00:00
Orbit: 404 x 415 km, 51.6° (Epoch: 20 December)

Date Brightness Start Highest point End Pass type
(mag) Time Alt. Az. Time Alt. Az. Time Alt. Az.
20 Dec -2.7 17:13:36 10° WNW 17:16:46 43° N 17:19:18 15° ENE visible
20 Dec -1.5 18:50:17 10° WNW 18:52:04 29° WNW 18:52:04 29° WNW visible
21 Dec -3.3 17:59:29 10° WNW 18:02:46 65° NNE 18:03:30 47° ENE visible
21 Dec 0.3 19:36:16 10° W 19:36:16 10° W 19:36:16 10° W visible
22 Dec -3.0 17:08:38 10° WNW 17:11:53 51° NNE 17:15:00 11° E visible
22 Dec -2.0 18:45:17 10° WNW 18:47:46 40° WSW 18:47:46 40° WSW visible
23 Dec -3.2 17:54:21 10° WNW 17:57:39 76° SSW 17:59:22 26° ESE visible
23 Dec 0.2 19:31:48 10° W 19:32:09 11° WSW 19:32:09 11° WSW visible
24 Dec -3.4 17:03:24 10° WNW 17:06:43 76° NNE 17:10:00 10° ESE visible
24 Dec -1.2 18:40:19 10° W 18:43:02 24° SW 18:43:55 21° SSW visible
25 Dec -1.9 17:49:06 10° WNW 17:52:12 38° SSW 17:55:16 10° SE visible
26 Dec -2.7 16:57:59 10° WNW 17:01:15 61° SSW 17:04:29 10° SE visible
26 Dec -0.1 18:36:02 10° WSW 18:37:15 12° SW 18:38:26 10° SSW visible
27 Dec -0.4 17:43:59 10° W 17:46:24 19° SW 17:48:48 10° S visible
28 Dec -1.1 16:52:30 10° W 16:55:27 30° SW 16:58:22 10° SSE visible
